{"data":{"norad_id":66692,"epoch":"2026-09-20T22:07:19.760736Z","epoch_age_seconds":84482,"freshness":"FRESH","line1":"1 66692U 25276AC  26263.92175649  .00003002  00000+0  14029-3 0  9996","line2":"2 66692  97.4126 335.8876 0004352  61.4568 298.7105 15.20549295 44961","mean_motion":15.20549295,"eccentricity":0.0004352,"inclination_deg":97.4126,"raan_deg":335.8876,"arg_perigee_deg":61.4568,"mean_anomaly_deg":298.7105,"bstar":0.00014029,"rev_number":4496,"period_min":94.702618634932,"perigee_km":501.18744748969,"apogee_km":507.17781849825,"semimajor_km":6882.319632994,"source":"CELESTRAK","updated_at":"2026-09-21T09:00:16.126957Z"}}